Location: Amsterdam
(30.7274°N, 84.4357°W)
Time: 00:10:55
(UTC+00:00)

Explorer 11/Cluster Stage 4 - Pass Details

Date: 24 February 2026
Orbit: 463 x 1176 km, 28.8° (Epoch: 9 March)

Event Time Altitude Azimuth Distance (km) Brightness Sun altitude
Rises 19:14:21 0° 273° (W) 3,071 9.9 45.3°
Reaches altitude 10° 19:17:02 10° 268° (W) 2,031 9.2 45.0°
Maximum altitude 19:21:29 46° 195° (SSW) 753 8.7 44.5°
Drops below altitude 10° 19:25:15 10° 121° (ESE) 1,718 8.4 44.1°
Sets 19:27:21 0° 115° (ESE) 2,544 9.1 43.8°
